CCA4406 ZULS-ZUUU

Flight info

Callsign CCA4406
Flight time 1h 41m
Altitude 33100
Route DUMIX W9 LADUP
Aircraft A339/H-SDE3FGHIRWY/LB1

Departure

Time 2026-05-06 18:44
Airport Lhasa Gonggar International Airport (ZULS)

Arrival

Time 2026-05-06 20:26
Airport Chengdu Shuangliu International Airport (ZUUU)
Time Latitude Longitude Altitude Speed Heading
2026-05-06 18:29 29.29433 90.88891 11888 ft 0 kts 179°
2026-05-06 18:32 29.29447 90.88891 11889 ft 2 kts 186°
2026-05-06 18:33 29.29461 90.88894 11889 ft 2 kts 201°
2026-05-06 18:33 29.29475 90.88902 11889 ft 2 kts 212°
2026-05-06 18:33 29.29487 90.88911 11889 ft 2 kts 225°
2026-05-06 18:33 29.29497 90.88925 11889 ft 2 kts 237°
2026-05-06 18:34 29.29504 90.88940 11889 ft 2 kts 249°
2026-05-06 18:34 29.29508 90.88957 11889 ft 2 kts 261°
2026-05-06 18:34 29.29509 90.88967 11889 ft 0 kts 269°
2026-05-06 18:34 29.29509 90.88971 11889 ft 0 kts 270°
2026-05-06 18:37 29.29509 90.88969 11888 ft 0 kts 270°
2026-05-06 18:37 29.29509 90.88942 11888 ft 3 kts 268°
2026-05-06 18:37 29.29508 90.88913 11888 ft 4 kts 269°
2026-05-06 18:38 29.29508 90.88876 11889 ft 5 kts 269°
2026-05-06 18:38 29.29509 90.88832 11889 ft 5 kts 278°
2026-05-06 18:38 29.29522 90.88784 11889 ft 6 kts 298°
2026-05-06 18:38 29.29553 90.88738 11889 ft 7 kts 310°
2026-05-06 18:39 29.29593 90.88701 11889 ft 7 kts 334°
2026-05-06 18:39 29.29644 90.88688 11889 ft 7 kts 356°
2026-05-06 18:39 29.29699 90.88686 11889 ft 7 kts
2026-05-06 18:40 29.29713 90.88686 11889 ft 1 kts
2026-05-06 18:40 29.29724 90.88686 11889 ft 2 kts
2026-05-06 18:40 29.29741 90.88686 11889 ft 2 kts
2026-05-06 18:40 29.29763 90.88686 11889 ft 3 kts
2026-05-06 18:41 29.29789 90.88686 11889 ft 4 kts
2026-05-06 18:41 29.29817 90.88688 11889 ft 3 kts 17°
2026-05-06 18:41 29.29844 90.88705 11889 ft 4 kts 33°
2026-05-06 18:41 29.29875 90.88733 11889 ft 6 kts 39°
2026-05-06 18:42 29.29914 90.88770 11889 ft 7 kts 39°
2026-05-06 18:42 29.29961 90.88807 11889 ft 8 kts 26°
2026-05-06 18:42 29.30021 90.88821 11889 ft 9 kts
2026-05-06 18:42 29.30086 90.88830 11889 ft 8 kts 29°
2026-05-06 18:43 29.30113 90.88899 11889 ft 11 kts 83°
2026-05-06 18:43 29.30119 90.89200 11889 ft 67 kts 89°
2026-05-06 18:43 29.30132 90.89941 11888 ft 119 kts 90°
2026-05-06 18:43 29.30147 90.91087 11887 ft 164 kts 89°
2026-05-06 18:44 29.30169 90.92510 12000 ft 190 kts 91°
2026-05-06 18:44 29.30192 90.94011 12500 ft 189 kts 91°
2026-05-06 18:44 29.30214 90.95515 13045 ft 192 kts 90°
2026-05-06 18:44 29.30237 90.97031 13605 ft 194 kts 90°
2026-05-06 18:45 29.30259 90.98627 14005 ft 208 kts 90°
2026-05-06 18:45 29.30283 91.00328 14280 ft 222 kts 90°
2026-05-06 18:45 29.30469 91.02151 14550 ft 239 kts 75°
2026-05-06 18:45 29.31073 91.03992 14830 ft 256 kts 70°
2026-05-06 18:46 29.31643 91.05968 15135 ft 272 kts 80°
2026-05-06 18:46 29.31836 91.08202 15463 ft 289 kts 94°
2026-05-06 18:46 29.31518 91.10519 15801 ft 303 kts 105°
2026-05-06 18:46 29.31013 91.12910 16137 ft 316 kts 104°
2026-05-06 18:47 29.30576 91.15381 16691 ft 322 kts 101°
2026-05-06 18:47 29.30268 91.17931 17341 ft 325 kts 98°
2026-05-06 18:47 29.30059 91.20496 17986 ft 328 kts 97°
2026-05-06 18:47 29.29860 91.23120 18633 ft 332 kts 97°
2026-05-06 18:48 29.29665 91.25744 19171 ft 337 kts 97°
2026-05-06 18:48 29.29465 91.28439 19678 ft 342 kts 97°
2026-05-06 18:48 29.29266 91.31142 20192 ft 347 kts 97°
2026-05-06 18:48 29.29061 91.33929 20726 ft 352 kts 97°
2026-05-06 18:49 29.28856 91.36710 21249 ft 357 kts 97°
2026-05-06 18:49 29.28645 91.39556 21785 ft 362 kts 97°
2026-05-06 18:49 29.28430 91.42437 22314 ft 367 kts 97°
2026-05-06 18:49 29.28212 91.45349 22834 ft 372 kts 97°
2026-05-06 18:50 29.27988 91.48346 23369 ft 377 kts 97°
2026-05-06 18:50 29.27763 91.51321 23902 ft 381 kts 98°
2026-05-06 18:50 29.27515 91.54334 24453 ft 385 kts 98°
2026-05-06 18:50 29.27254 91.57398 24976 ft 389 kts 99°
2026-05-06 18:51 29.26986 91.60497 25494 ft 392 kts 99°
2026-05-06 18:51 29.26720 91.63578 26002 ft 396 kts 99°
2026-05-06 18:51 29.26449 91.66720 26502 ft 399 kts 99°
2026-05-06 18:51 29.26175 91.69894 26949 ft 403 kts 99°
2026-05-06 18:52 29.25898 91.73100 27398 ft 407 kts 99°
2026-05-06 18:52 29.25639 91.76334 27836 ft 412 kts 97°
2026-05-06 18:52 29.25510 91.79627 28168 ft 420 kts 96°
2026-05-06 18:52 29.25418 91.82991 28357 ft 430 kts 95°
2026-05-06 18:53 29.25330 91.86458 28544 ft 440 kts 95°
2026-05-06 18:53 29.25242 91.89970 28720 ft 450 kts 95°
2026-05-06 18:53 29.25146 91.93576 28895 ft 460 kts 95°
2026-05-06 18:53 29.25046 91.97289 29063 ft 470 kts 95°
2026-05-06 18:54 29.24942 92.01032 29225 ft 479 kts 95°
2026-05-06 18:54 29.24833 92.04869 29457 ft 486 kts 95°
2026-05-06 18:54 29.24725 92.08754 29797 ft 490 kts 95°
2026-05-06 18:54 29.24614 92.12655 30133 ft 494 kts 96°
2026-05-06 18:55 29.24499 92.16604 30450 ft 499 kts 95°
2026-05-06 18:55 29.24381 92.20589 30785 ft 502 kts 95°
2026-05-06 18:55 29.24273 92.24564 31097 ft 506 kts 95°
2026-05-06 18:55 29.24169 92.28593 31497 ft 507 kts 96°
2026-05-06 18:56 29.24066 92.32593 31924 ft 508 kts 96°
2026-05-06 18:56 29.23960 92.36621 32249 ft 511 kts 96°
2026-05-06 18:56 29.23848 92.40691 32523 ft 515 kts 96°
2026-05-06 18:56 29.23731 92.44797 32811 ft 519 kts 96°
2026-05-06 18:57 29.23675 92.48932 33164 ft 523 kts 92°
2026-05-06 18:57 29.23921 92.53078 33545 ft 528 kts 86°
2026-05-06 18:57 29.24514 92.57236 33757 ft 532 kts 80°
2026-05-06 18:58 29.26771 92.65314 33780 ft 536 kts 67°
2026-05-06 18:58 29.30268 92.72870 33790 ft 536 kts 59°
2026-05-06 18:59 29.34022 92.80220 33811 ft 536 kts 60°
2026-05-06 18:59 29.37712 92.87584 33809 ft 535 kts 60°
2026-05-06 19:00 29.41370 92.94993 33808 ft 535 kts 60°
2026-05-06 19:00 29.45027 93.02419 33809 ft 535 kts 60°
2026-05-06 19:00 29.46854 93.06126 33914 ft 541 kts 60°
2026-05-06 19:01 29.48708 93.09894 34247 ft 543 kts 60°
2026-05-06 19:01 29.50561 93.13672 34654 ft 543 kts 60°
2026-05-06 19:01 29.52390 93.17404 35146 ft 541 kts 60°
2026-05-06 19:01 29.54244 93.21192 35617 ft 539 kts 60°
2026-05-06 19:02 29.56057 93.24900 35805 ft 541 kts 60°
2026-05-06 19:02 29.59737 93.32427 35811 ft 541 kts 60°
2026-05-06 19:03 29.63415 93.39973 35802 ft 540 kts 60°
2026-05-06 19:03 29.67059 93.47467 35788 ft 540 kts 60°
2026-05-06 19:04 29.70710 93.54984 35776 ft 540 kts 60°
2026-05-06 19:04 29.74367 93.62535 35761 ft 539 kts 60°
2026-05-06 19:05 29.77931 93.69907 35762 ft 540 kts 60°
2026-05-06 19:05 29.81549 93.77410 35744 ft 538 kts 60°
2026-05-06 19:06 29.85184 93.84961 35723 ft 539 kts 60°
2026-05-06 19:06 29.88462 93.92621 35746 ft 537 kts 67°
2026-05-06 19:07 29.90913 94.00746 35762 ft 538 kts 76°
2026-05-06 19:07 29.92629 94.09114 35748 ft 538 kts 79°
2026-05-06 19:08 29.94235 94.17504 35724 ft 538 kts 79°
2026-05-06 19:08 29.95867 94.25905 35687 ft 538 kts 78°
2026-05-06 19:09 29.97514 94.34319 35674 ft 536 kts 78°
2026-05-06 19:09 29.99140 94.42645 35666 ft 537 kts 78°
2026-05-06 19:10 30.00781 94.51067 35670 ft 536 kts 78°
2026-05-06 19:10 30.02404 94.59426 35660 ft 536 kts 78°
2026-05-06 19:11 30.04010 94.67738 35651 ft 535 kts 79°
2026-05-06 19:11 30.05590 94.75944 35626 ft 535 kts 79°
2026-05-06 19:12 30.07196 94.84309 35602 ft 535 kts 79°
2026-05-06 19:12 30.08787 94.92648 35609 ft 535 kts 79°
2026-05-06 19:13 30.10407 95.01064 35614 ft 535 kts 78°
2026-05-06 19:13 30.12083 95.09425 35606 ft 535 kts 78°
2026-05-06 19:14 30.13743 95.17741 35637 ft 535 kts 78°
2026-05-06 19:14 30.15402 95.26114 35668 ft 535 kts 78°
2026-05-06 19:15 30.17045 95.34456 35651 ft 535 kts 78°
2026-05-06 19:15 30.18687 95.42825 35672 ft 536 kts 78°
2026-05-06 19:16 30.20327 95.51207 35668 ft 535 kts 78°
2026-05-06 19:16 30.21959 95.59603 35687 ft 535 kts 78°
2026-05-06 19:17 30.23579 95.67954 35697 ft 535 kts 78°
2026-05-06 19:17 30.25180 95.76219 35724 ft 534 kts 78°
2026-05-06 19:18 30.26790 95.84578 35719 ft 535 kts 78°
2026-05-06 19:18 30.28401 95.92983 35730 ft 534 kts 78°
2026-05-06 19:19 30.29997 96.01342 35771 ft 535 kts 78°
2026-05-06 19:19 30.31679 96.09696 35783 ft 535 kts 77°
2026-05-06 19:20 30.33391 96.18073 35778 ft 535 kts 77°
2026-05-06 19:20 30.35075 96.26385 35786 ft 533 kts 77°
2026-05-06 19:21 30.36744 96.34712 35792 ft 533 kts 77°
2026-05-06 19:21 30.38408 96.43047 35766 ft 533 kts 77°
2026-05-06 19:22 30.40077 96.51419 35771 ft 533 kts 77°
2026-05-06 19:22 30.41724 96.59714 35769 ft 532 kts 77°
2026-05-06 19:23 30.43376 96.68077 35778 ft 533 kts 78°
2026-05-06 19:23 30.45003 96.76321 35771 ft 533 kts 78°
2026-05-06 19:24 30.46643 96.84689 35801 ft 532 kts 78°
2026-05-06 19:24 30.48265 96.93005 35803 ft 532 kts 77°
2026-05-06 19:25 30.49900 97.01386 35810 ft 532 kts 78°
2026-05-06 19:25 30.51271 97.09770 35804 ft 531 kts 83°
2026-05-06 19:26 30.51767 97.18264 35804 ft 529 kts 91°
2026-05-06 19:26 30.51356 97.26717 35811 ft 527 kts 98°
2026-05-06 19:27 30.50605 97.35158 35803 ft 527 kts 98°
2026-05-06 19:27 30.49858 97.43594 35803 ft 528 kts 98°
2026-05-06 19:28 30.49129 97.52043 35801 ft 529 kts 98°
2026-05-06 19:28 30.48403 97.60502 35786 ft 528 kts 98°
2026-05-06 19:29 30.47672 97.68964 35763 ft 528 kts 98°
2026-05-06 19:29 30.46935 97.77430 35748 ft 528 kts 98°
2026-05-06 19:30 30.46192 97.85903 35732 ft 529 kts 98°
2026-05-06 19:30 30.45444 97.94338 35719 ft 530 kts 98°
2026-05-06 19:31 30.44687 98.02832 35716 ft 530 kts 98°
2026-05-06 19:31 30.43544 98.15520 35706 ft 529 kts 98°
2026-05-06 19:32 30.42816 98.23967 35702 ft 529 kts 97°
2026-05-06 19:32 30.42173 98.32443 35706 ft 530 kts 97°
2026-05-06 19:33 30.41523 98.40923 35710 ft 530 kts 97°
2026-05-06 19:33 30.40865 98.49378 35713 ft 529 kts 97°
2026-05-06 19:34 30.40189 98.57867 35715 ft 530 kts 97°
2026-05-06 19:34 30.39510 98.66354 35716 ft 530 kts 97°
2026-05-06 19:35 30.38830 98.74765 35723 ft 529 kts 97°
2026-05-06 19:35 30.38191 98.82645 35719 ft 530 kts 98°
2026-05-06 19:36 30.37494 98.91111 35708 ft 530 kts 97°
2026-05-06 19:36 30.36791 98.99598 35693 ft 531 kts 97°
2026-05-06 19:37 30.36085 99.08112 35701 ft 530 kts 97°
2026-05-06 19:37 30.35495 99.15138 35711 ft 530 kts 97°
2026-05-06 19:38 30.34661 99.25046 35722 ft 529 kts 97°
2026-05-06 19:38 30.33939 99.33481 35727 ft 530 kts 97°
2026-05-06 19:39 30.33210 99.41966 35732 ft 529 kts 97°
2026-05-06 19:39 30.32479 99.50412 35744 ft 529 kts 97°
2026-05-06 19:40 30.31744 99.58829 35770 ft 529 kts 97°
2026-05-06 19:40 30.31003 99.67258 35774 ft 529 kts 97°
2026-05-06 19:41 30.30301 99.75198 35769 ft 529 kts 98°
2026-05-06 19:41 30.29544 99.83648 35775 ft 529 kts 98°
2026-05-06 19:42 30.28783 99.92115 35785 ft 528 kts 97°
2026-05-06 19:42 30.28023 100.00533 35793 ft 528 kts 97°
2026-05-06 19:43 30.27377 100.08964 35784 ft 529 kts 96°
2026-05-06 19:43 30.26772 100.17413 35766 ft 530 kts 96°
2026-05-06 19:44 30.26145 100.25861 35749 ft 529 kts 96°
2026-05-06 19:44 30.25503 100.34338 35739 ft 530 kts 96°
2026-05-06 19:45 30.24856 100.42819 35734 ft 530 kts 96°
2026-05-06 19:45 30.24203 100.51241 35741 ft 531 kts 96°
2026-05-06 19:46 30.23541 100.59768 35708 ft 530 kts 96°
2026-05-06 19:46 30.22877 100.68204 35709 ft 530 kts 96°
2026-05-06 19:47 30.22204 100.76726 35678 ft 530 kts 96°
2026-05-06 19:47 30.21527 100.85183 35660 ft 530 kts 97°
2026-05-06 19:48 30.20846 100.93638 35650 ft 530 kts 96°
2026-05-06 19:48 30.20154 101.02120 35646 ft 531 kts 96°
2026-05-06 19:49 30.19465 101.10548 35643 ft 530 kts 96°
2026-05-06 19:49 30.18762 101.19047 35656 ft 530 kts 96°
2026-05-06 19:50 30.18060 101.27460 35679 ft 530 kts 96°
2026-05-06 19:50 30.17349 101.35921 35612 ft 531 kts 96°
2026-05-06 19:51 30.16989 101.40151 35352 ft 530 kts 96°
2026-05-06 19:51 30.16629 101.44361 35095 ft 527 kts 96°
2026-05-06 19:51 30.16269 101.48578 34822 ft 524 kts 96°
2026-05-06 19:51 30.15915 101.52715 34566 ft 522 kts 96°
2026-05-06 19:52 30.15581 101.56892 34297 ft 520 kts 95°
2026-05-06 19:52 30.15273 101.61002 34055 ft 521 kts 95°
2026-05-06 19:52 30.15041 101.65208 33776 ft 521 kts 92°
2026-05-06 19:52 30.15112 101.69370 33501 ft 521 kts 85°
2026-05-06 19:53 30.15518 101.73518 33259 ft 521 kts 79°
2026-05-06 19:53 30.16239 101.77496 32995 ft 519 kts 73°
2026-05-06 19:53 30.17297 101.81458 32747 ft 517 kts 68°
2026-05-06 19:53 30.18576 101.85146 32523 ft 516 kts 64°
2026-05-06 19:54 30.19996 101.88950 32277 ft 515 kts 64°
2026-05-06 19:54 30.21423 101.92718 32040 ft 514 kts 64°
2026-05-06 19:54 30.22835 101.96478 31789 ft 510 kts 64°
2026-05-06 19:54 30.24239 102.00256 31554 ft 507 kts 64°
2026-05-06 19:55 30.25618 102.03990 31313 ft 504 kts 65°
2026-05-06 19:55 30.26987 102.07719 31057 ft 501 kts 65°
2026-05-06 19:55 30.28335 102.11399 30832 ft 498 kts 65°
2026-05-06 19:55 30.29667 102.15050 30599 ft 496 kts 65°
2026-05-06 19:56 30.31007 102.18730 30372 ft 493 kts 65°
2026-05-06 19:56 30.32320 102.22333 30098 ft 490 kts 65°
2026-05-06 19:56 30.33645 102.25973 29763 ft 488 kts 65°
2026-05-06 19:56 30.34943 102.29543 29410 ft 484 kts 66°
2026-05-06 19:57 30.36246 102.33134 29051 ft 481 kts 66°
2026-05-06 19:57 30.37538 102.36704 28701 ft 477 kts 66°
2026-05-06 19:57 30.38808 102.40208 28338 ft 474 kts 66°
2026-05-06 19:57 30.40073 102.43710 27975 ft 470 kts 66°
2026-05-06 19:58 30.41317 102.47158 27571 ft 464 kts 66°
2026-05-06 19:58 30.42548 102.50574 27206 ft 457 kts 66°
2026-05-06 19:58 30.43756 102.53922 26848 ft 449 kts 66°
2026-05-06 19:58 30.44952 102.57245 26465 ft 443 kts 66°
2026-05-06 19:59 30.46118 102.60484 26088 ft 437 kts 66°
2026-05-06 19:59 30.47287 102.63731 25722 ft 431 kts 66°
2026-05-06 19:59 30.48432 102.66905 25352 ft 427 kts 66°
2026-05-06 19:59 30.49578 102.70081 24973 ft 424 kts 66°
2026-05-06 20:00 30.50673 102.73126 24633 ft 419 kts 66°
2026-05-06 20:00 30.51763 102.76161 24284 ft 416 kts 66°
2026-05-06 20:00 30.52868 102.79243 23927 ft 412 kts 66°
2026-05-06 20:00 30.53950 102.82261 23581 ft 408 kts 66°
2026-05-06 20:01 30.55037 102.85296 23230 ft 405 kts 66°
2026-05-06 20:01 30.56105 102.88285 22869 ft 403 kts 66°
2026-05-06 20:01 30.57176 102.91283 22517 ft 400 kts 66°
2026-05-06 20:01 30.58235 102.94252 22174 ft 398 kts 66°
2026-05-06 20:02 30.59292 102.97214 21840 ft 396 kts 66°
2026-05-06 20:02 30.60341 103.00156 21511 ft 394 kts 66°
2026-05-06 20:02 30.61380 103.03088 21145 ft 394 kts 67°
2026-05-06 20:02 30.62386 103.05999 20777 ft 393 kts 68°
2026-05-06 20:03 30.63399 103.08952 20413 ft 391 kts 68°
2026-05-06 20:03 30.64398 103.11871 20060 ft 389 kts 68°
2026-05-06 20:03 30.65383 103.14748 19715 ft 387 kts 68°
2026-05-06 20:03 30.66376 103.17645 19337 ft 385 kts 68°
2026-05-06 20:04 30.67366 103.20532 18969 ft 383 kts 68°
2026-05-06 20:04 30.68148 103.23435 18588 ft 380 kts 79°
2026-05-06 20:04 30.68418 103.26485 18234 ft 377 kts 91°
2026-05-06 20:04 30.68240 103.29515 17896 ft 375 kts 96°
2026-05-06 20:05 30.67955 103.32494 17511 ft 374 kts 97°
2026-05-06 20:05 30.67655 103.35491 17142 ft 372 kts 97°
2026-05-06 20:05 30.67368 103.38436 16772 ft 371 kts 97°
2026-05-06 20:05 30.67087 103.41409 16401 ft 370 kts 96°
2026-05-06 20:06 30.66810 103.44388 16005 ft 368 kts 96°
2026-05-06 20:06 30.66542 103.47291 15661 ft 365 kts 96°
2026-05-06 20:06 30.66275 103.50218 15245 ft 363 kts 96°
2026-05-06 20:06 30.66009 103.53114 14942 ft 360 kts 96°
2026-05-06 20:07 30.65745 103.55986 14564 ft 359 kts 95°
2026-05-06 20:07 30.65480 103.58860 14163 ft 357 kts 95°
2026-05-06 20:07 30.65217 103.61719 13763 ft 355 kts 95°
2026-05-06 20:07 30.64932 103.64547 13374 ft 352 kts 99°
2026-05-06 20:08 30.64034 103.67149 12936 ft 353 kts 124°
2026-05-06 20:08 30.62248 103.69061 12725 ft 351 kts 147°
2026-05-06 20:08 30.60627 103.69872 12747 ft 345 kts 161°
2026-05-06 20:08 30.58348 103.70566 12795 ft 347 kts 162°
2026-05-06 20:09 30.56022 103.71272 12810 ft 347 kts 162°
2026-05-06 20:09 30.53690 103.71976 12913 ft 342 kts 164°
2026-05-06 20:09 30.51408 103.72458 12923 ft 331 kts 169°
2026-05-06 20:09 30.49140 103.72687 12870 ft 321 kts 173°
2026-05-06 20:10 30.46933 103.72839 12834 ft 306 kts 174°
2026-05-06 20:10 30.44875 103.72968 12842 ft 286 kts 174°
2026-05-06 20:10 30.42932 103.73095 12840 ft 272 kts 173°
2026-05-06 20:10 30.41101 103.73218 12778 ft 262 kts 173°
2026-05-06 20:11 30.39287 103.73308 12407 ft 261 kts 181°
2026-05-06 20:11 30.37495 103.72898 12016 ft 261 kts 197°
2026-05-06 20:11 30.35809 103.72130 11630 ft 258 kts 200°
2026-05-06 20:11 30.34159 103.71313 11182 ft 258 kts 201°
2026-05-06 20:12 30.32518 103.70505 10740 ft 258 kts 200°
2026-05-06 20:12 30.30868 103.69706 10233 ft 261 kts 200°
2026-05-06 20:12 30.29169 103.68903 9714 ft 264 kts 199°
2026-05-06 20:12 30.27459 103.68124 9224 ft 264 kts 199°
2026-05-06 20:13 30.25744 103.67351 8771 ft 263 kts 199°
2026-05-06 20:13 30.24058 103.66589 8367 ft 260 kts 199°
2026-05-06 20:13 30.22379 103.65830 7996 ft 258 kts 200°
2026-05-06 20:13 30.20711 103.65074 7668 ft 256 kts 200°
2026-05-06 20:14 30.19059 103.64391 7342 ft 254 kts 188°
2026-05-06 20:14 30.17355 103.64599 7054 ft 244 kts 147°
2026-05-06 20:14 30.16223 103.65900 6906 ft 224 kts 107°
2026-05-06 20:14 30.15797 103.67582 6749 ft 215 kts 97°
2026-05-06 20:15 30.15488 103.69261 6511 ft 213 kts 89°
2026-05-06 20:15 30.15845 103.70840 6232 ft 203 kts 46°
2026-05-06 20:15 30.16917 103.71836 6122 ft 194 kts 32°
2026-05-06 20:15 30.18028 103.72706 6008 ft 189 kts 33°
2026-05-06 20:16 30.19081 103.73566 5951 ft 187 kts 34°
2026-05-06 20:16 30.20145 103.74473 5937 ft 188 kts 36°
2026-05-06 20:16 30.21188 103.75382 5923 ft 188 kts 36°
2026-05-06 20:16 30.22233 103.76321 5929 ft 189 kts 38°
2026-05-06 20:17 30.23226 103.77312 5917 ft 188 kts 40°
2026-05-06 20:17 30.24203 103.78312 5916 ft 188 kts 40°
2026-05-06 20:17 30.25237 103.79253 5918 ft 187 kts 32°
2026-05-06 20:17 30.26362 103.79998 5917 ft 186 kts 26°
2026-05-06 20:18 30.27527 103.80592 5923 ft 175 kts 22°
2026-05-06 20:18 30.28645 103.81108 5913 ft 172 kts 21°
2026-05-06 20:18 30.29757 103.81616 5922 ft 172 kts 22°
2026-05-06 20:18 30.30887 103.82134 5925 ft 173 kts 22°
2026-05-06 20:19 30.32003 103.82650 5926 ft 172 kts 22°
2026-05-06 20:19 30.33120 103.83169 5925 ft 172 kts 22°
2026-05-06 20:19 30.34211 103.83677 5925 ft 163 kts 22°
2026-05-06 20:19 30.35228 103.84152 5896 ft 154 kts 23°
2026-05-06 20:20 30.36221 103.84616 5753 ft 153 kts 22°
2026-05-06 20:20 30.37211 103.85079 5552 ft 152 kts 22°
2026-05-06 20:20 30.38187 103.85536 5358 ft 151 kts 22°
2026-05-06 20:20 30.39162 103.85992 5166 ft 151 kts 22°
2026-05-06 20:21 30.40138 103.86449 4973 ft 150 kts 21°
2026-05-06 20:21 30.41108 103.86902 4782 ft 150 kts 21°
2026-05-06 20:21 30.42077 103.87354 4586 ft 149 kts 21°
2026-05-06 20:21 30.43032 103.87800 4395 ft 148 kts 20°
2026-05-06 20:22 30.43991 103.88246 4205 ft 148 kts 20°
2026-05-06 20:22 30.44948 103.88693 4015 ft 148 kts 20°
2026-05-06 20:22 30.45910 103.89141 3825 ft 148 kts 19°
2026-05-06 20:22 30.46865 103.89586 3629 ft 147 kts 19°
2026-05-06 20:23 30.47817 103.90030 3438 ft 146 kts 18°
2026-05-06 20:23 30.48758 103.90467 3249 ft 146 kts 18°
2026-05-06 20:23 30.49697 103.90905 3062 ft 145 kts 18°
2026-05-06 20:23 30.50636 103.91341 2871 ft 145 kts 19°
2026-05-06 20:24 30.51570 103.91776 2687 ft 144 kts 19°
2026-05-06 20:24 30.52510 103.92214 2499 ft 144 kts 19°
2026-05-06 20:24 30.53435 103.92645 2314 ft 144 kts 19°
2026-05-06 20:24 30.54366 103.93078 2127 ft 143 kts 19°
2026-05-06 20:25 30.55295 103.93510 1944 ft 143 kts 20°
2026-05-06 20:25 30.56223 103.93943 1754 ft 143 kts 20°
2026-05-06 20:25 30.57117 103.94358 1699 ft 129 kts 22°
2026-05-06 20:25 30.57786 103.94669 1698 ft 76 kts 22°
2026-05-06 20:26 30.58122 103.94827 1698 ft 38 kts 21°
2026-05-06 20:26 30.58364 103.94943 1698 ft 36 kts 28°
2026-05-06 20:26 30.58543 103.95128 1698 ft 26 kts 51°
2026-05-06 20:26 30.58649 103.95268 1698 ft 19 kts 39°
2026-05-06 20:27 30.58755 103.95334 1698 ft 4 kts 22°
2026-05-06 20:27 30.58756 103.95335 1698 ft 0 kts 22°